カタログに戻る

STARLINK-34113

運用中通信VLEO
NORAD 64010·PAYLOAD·🇺🇸 United States

打ち上げ May 14, 2025 から Cape Canaveral Space Force Station

Loading…

次のパス (今後24時間)

TLE

最新Source: CelesTrak SupGP

元期: Sep 15, 2026, 02:36 UTC

1 64010C 25101S   26258.10881944  .00012057  00000+0  43669-3 0  2581
2 64010  43.0017   8.4906 0001603 264.5778  11.0967 15.27572725    12

AllMySatでSTARLINK-34113をリアルタイム追跡

Download on the App Store